SL-12 DEB, 27476

Orbit data source: Space-Track

SL-12 DEB, 27476 is space debris in LEO originally from a launch on Thu, 25 Jul 2002 UTC launched from the Tyuratam Missile And Space Complex (TTMTR). Debris objects in space refer to the collection of defunct objects orbiting the Earth. Examples of debris include non-operational satellites, rocket bodies, and fragments generated from explosions, collisions, or faulty payload assembly.

Loading next visibility...
Identifier
27476, 2002-037G
Orbit
LEO
Country
Flag of CISCIS
Related business
Manufacturer
Unknown
Mission
Spacecraft
Bus & Motor
Unknown
Mass
Unknown
Launch date (UTC)
2002-07-25 (24 years ago)
Launch vehicle
Unknown
Launch site
Tyuratam Missile And Space Complex (TTMTR)
Object type
Payload
Rocket body
Debris
Shape & HBR
Unknown shape, 0.8 m
Radar Cross Section
Large (>1 m²)

Expand to show TLE details & history
Last TLE update: 2 days ago

TLE from 2 days ago
0 SL-12 DEB
1 27476U 02037G   26171.45687476 -.00000154  00000-0 -62349-3 0  9991
2 27476  63.4121 212.0931 0632626 349.7945 107.3204 12.02386908 49255
Epoch: 2026-06-20T10:57Z
TLE epoch observation values (Epoch: 2026-06-20T10:57:53.979Z)
Latitude
60.35979°
Longitude
-102.15571°
Altitude
1,859.487 km
Speed
6.885 km/s
True Right ascension
22h 03m 57s
True Declination
60° 13' 54"
Sunlit
Object was in daylight at epoch
Visualization orbit readout
Latitude
Unknown
Longitude
Unknown
Altitude
Unknown
Speed
Unknown
Apparent Right ascension
Unknown
Apparent Declination
Unknown
Sunlit
N/A
Visualization observer readout
Local Sidereal Time
00:27:32
Azimuth
Unknown
Elevation
Unknown
Doppler factor
Unknown
Orbital elements
Apogee altitude
2,178.187 km
Perigee altitude
1,160.009 km
Semi-major axis
8,047.235 km
Eccentricity
0.06326
Inclination
63.4121°
RAAN
212.0931°
Arg. of periapsis
349.7945°
True anomaly
114.06614°
Mean anomaly
107.3204°
Eccentric anomaly
110.71084°
Mean motion
3.00658 °/min
Orbital period
119.74 mins
BSTAR
-0.00062349
Loading maneuver chart data...
Computing Atmospheric mass density...

Documentation

Showing up to 5 results
|